{"data":{"norad_id":65743,"epoch":"2026-05-24T19:34:45.202080Z","epoch_age_seconds":90635,"freshness":"FRESH","line1":"1 65743U 25216K   26144.81580095  .00015125  00000+0  52153-3 0  9996","line2":"2 65743  53.1602 338.9496 0000853 107.4156 252.6938 15.30213573 38259","mean_motion":15.30213573,"eccentricity":8.53e-5,"inclination_deg":53.1602,"raan_deg":338.9496,"arg_perigee_deg":107.4156,"mean_anomaly_deg":252.6938,"bstar":0.00052153,"rev_number":3825,"period_min":94.104510991682,"perigee_km":474.5899557128,"apogee_km":475.75913066207,"semimajor_km":6853.3115431874,"source":"CELESTRAK","updated_at":"2026-05-25T13:38:20.931156Z"}}